Location: Tamazert
(32.6352°N, 5.2072°W)
Time: 19:30:14
(UTC+00:00)

Vanguard 3 - Pass Details

Date: 09 October 2022
Orbit: 509 x 3255 km, 33.3° (Epoch: 02 December)

Event Time Altitude Azimuth Distance (km) Brightness Sun altitude
Rises 15:06:21 0° 254° (WSW) 4,479 11.9 32.4°
Reaches altitude 10° 15:13:57 10° 215° (SW) 4,346 12.1 31.1°
Maximum altitude 15:15:11 10° 209° (SSW) 4,455 12.0 30.9°
Drops below altitude 10° 15:16:28 10° 203° (SSW) 4,601 12.0 30.6°
Sets 15:27:28 0° 169° (SSE) 6,530 12.0 28.6°
